Regional Weather Roundup
Issued by NWS

Home | Current Version | Previous Version | Text Only | Print | Product List | Glossary Off
Versions: 1 2 3 4 5 6 7 8 9 10 11 12 13 14 15 16 17 18 19 20 21 22 23 24 25 26 27 28 29 30 31 32 33 34 35 36 37 38 39 40 41 42 43 44 45 46 47 48 49 50

000
ASUS43 KTOP 050708
RWRKS

WEATHER ROUNDUP FOR KANSAS
NATIONAL WEATHER SERVICE GOODLAND KS
100 AM CST THU MAR 05 2015

NOTE:  "FAIR" INDICATES FEW OR NO CLOUDS BELOW 12,000 FEET WITH NO
SIGNIFICANT WEATHER AND/OR OBSTRUCTIONS TO VISIBILITY.

KSZ001>006-013>018-027>032-041>047-050800-
NORTHWEST KANSAS

CITY           SKY/WX    TMP DP  RH WIND       PRES   REMARKS
GOODLAND       CLEAR     15   9  76 W9        30.29F
HAYS           CLEAR     14   0  52 W6        30.38S
HILL CITY      MOCLDY    14   4  64 W7        30.37S
RUSSELL        CLEAR     14   5  67 SW7       30.38S
$$

KSZ061>065-074>080-084>089-050800-
SOUTHWEST KANSAS

CITY           SKY/WX    TMP DP  RH WIND       PRES   REMARKS
DODGE CITY     CLEAR     19   7  59 SW6       30.38F
ELKHART          N/A     17  10  74 W7          N/A
GARDEN CITY    CLEAR     16  11  80 W7        30.36F
GREAT BEND     CLEAR     12   3  67 W3        30.40S
LIBERAL        CLEAR     10   3  72 W5        30.39S
PRATT          CLEAR     10   3  72 W3        30.41S
$$

KSZ066>073-081>083-090>101-050800-
SOUTHEAST KANSAS

CITY           SKY/WX    TMP DP  RH WIND       PRES   REMARKS
CHANUTE        PTCLDY    19  12  74 W3        30.42S
COFFEYVILLE    MOCLDY    23  12  62 NW6       30.43R
HUTCHINSON     CLEAR     14   7  73 NW3       30.41F
MEDICINE LODGE   N/A     16  12  84 N3        30.43S
NEWTON         CLEAR     12   1  62 NW3       30.41S
PARSONS        PTCLDY    21  14  74 NW3       30.43S
WICHITA INTL   PTCLDY    18   9  68 NW5       30.42S
WICHITA JABRA  CLEAR     16   8  71 W6        30.41S
WINFIELD       CLEAR     18  13  80 CALM      30.44R
$$

KSZ007>012-019>026-033>040-048>060-102>105-050800-
NORTHEAST KANSAS

CITY           SKY/WX    TMP DP  RH WIND       PRES   REMARKS
CONCORDIA      CLEAR     15   2  56 NE3       30.44R
EMPORIA        CLEAR     17   7  64 NW3       30.42R
LAWRENCE       PTCLDY    19   2  47 N7        30.44S
MANHATTAN      CLEAR     19   4  51 N6        30.46R
MARYSVILLE     CLEAR     12   1  62 NE3       30.44F
OLATHE IND     PTCLDY    15   4  61 N8        30.42S
OLATHE EXE     PTCLDY    21   2  43 N8        30.40S
SALINA         CLEAR     16   6  65 NW3       30.45R
TOPEKA BILLARD CLEAR     19   4  51 N9        30.45S
TOPEKA FORBES  CLEAR     20   3  48 N7        30.43R
$$


USA.gov is the U.S. government's official web portal to all federal, state and local government web resources and services.